Hlavní strana
METAR-TAF:

METAR-TAF

Letiště :

Indianapolis, Indiana, Spojené státy americké

zeměpisná šířka: 40-01-50N, zeměpisná délka: 086-15-05W, výška: 281 m

Aktuální stav počasí

Zpráva byla vytvořena před 12 minutami, v 01:55 UTC
Západojihozápadní vítr 5 kt
Teplota 1°C
Vlhkost vzduchu 86%
Tlak 1020 hPa
Viditelnost: 16.1 km
Polojasno ve výšce 10000 ft

METAR: KTYQ 220155Z AUTO 24005KT 10SM SCT100 01/M01 A3011 RMK AO2 T00111011

Čas: 20:07 (02:07 UTC)


TAF: chybějící

Stav a předpovědi počasí z více než 4 000 letišť (zprávy METAR a TAF).

Červené a žluté tečky na mapě představují dostupné meteorologické stanice.

Když kurzor umístíte na tečku, zobrazí se název stanice.

Pak kliknutím zobrazíte stav a předpověď počasí.

Chcete-li změnit mapu, kliknutím na zelené tlačítko se znaménkem +mapu přiblížíte, kliknutím na zelené tlačítko se znaménkem – mapu oddálíte a kliknutím na zelené šipky přejdete na sousední mapy.


METAR-TAF: